Tracking 29892 objects as of 21-Nov-2024
HD Live streaming from Space Station
objects crossing your sky now

FENGYUN 1C DEB

Track FENGYUN 1C DEB now!
10-day predictions


NORAD ID: 30385
Int'l Code: 1999-025ACY
Perigee: 682.5 km
Apogee: 865.4 km
Inclination: 99.1 °
Period: 100.2 minutes
Semi major axis: 7144 km
RCS: 0.023 m2 (small)
Launch date: May 10, 1999
Source: People's Republic of China (PRC)
Launch site: Taiyaun Space Center, China (TSC)

Note: This is SATELLITE DEBRIS
Your satellite tracking list
Your tracking list is empty




NASA's NSSDC Master Catalog

Two Line Element Set (TLE):
1 30385U 99025ACY 24325.25715480  .00002453  00000-0  76145-3 0  9992
2 30385  99.0861 317.4197 0127955 347.4421  78.5909 14.37490451931997
Source of the keplerian elements: AFSPC